TimePST,TemperatureF,Dew PointF,Humidity,Sea Level PressureIn,VisibilityMPH,Wind Direction,Wind SpeedMPH,Gust SpeedMPH,PrecipitationIn,Events,Conditions,WindDirDegrees,DateUTC
12:00 AM,51.1,50.4,97,29.39,-9999.0,ESE,28.8,44.9,0.02,,Unknown,120,2012-11-17 08:00:00
1:00 AM,51,51,98,29.34,,ESE,31.1,,,,,120,2012-11-17 09:00:00
1:00 AM,51.3,50.5,97,29.34,-9999.0,ESE,31.1,46.0,0.16,,Unknown,120,2012-11-17 09:00:00
2:00 AM,51.3,50.5,97,29.32,-9999.0,SE,38.0,47.2,0.03,,Unknown,130,2012-11-17 10:00:00
3:00 AM,51.3,50.5,97,29.29,-9999.0,SE,35.7,43.7,N/A,,Unknown,130,2012-11-17 11:00:00
4:00 AM,48,47,96,29.29,,SSE,26.5,,,,,150,2012-11-17 12:00:00
4:00 AM,47.7,47.1,98,29.29,-9999.0,SSE,26.5,-,0.13,,Unknown,150,2012-11-17 12:00:00
5:00 AM,47.1,46.6,98,29.28,-9999.0,SSE,27.6,-,0.05,,Unknown,150,2012-11-17 13:00:00
6:00 AM,46.8,46.2,98,29.28,-9999.0,SSE,31.1,38.0,0.04,,Unknown,150,2012-11-17 14:00:00
7:00 AM,46,45,95,29.29,,SSE,32.2,,,,,160,2012-11-17 15:00:00
7:00 AM,46.4,45.0,95,29.29,-9999.0,SSE,32.2,39.1,N/A,,Unknown,160,2012-11-17 15:00:00
8:00 AM,46.6,45.5,96,29.31,-9999.0,SSE,27.6,-,0.02,,Unknown,150,2012-11-17 16:00:00
9:00 AM,47.8,46.6,95,29.32,-9999.0,SSE,24.2,29.9,N/A,,Unknown,150,2012-11-17 17:00:00
10:00 AM,49,44,79,29.34,,SSE,26.5,,,,,160,2012-11-17 18:00:00
10:00 AM,48.6,44.4,86,29.34,-9999.0,SSE,26.5,-,N/A,,Unknown,160,2012-11-17 18:00:00
11:00 AM,49.1,44.1,83,29.37,-9999.0,SSE,27.6,-,N/A,,Unknown,160,2012-11-17 19:00:00
12:00 PM,47.7,44.2,88,29.36,-9999.0,SSE,28.8,36.8,0.02,,Unknown,160,2012-11-17 20:00:00
1:00 PM,50,45,78,29.37,,SSE,24.2,,,,,160,2012-11-17 21:00:00
1:00 PM,50.2,45.3,83,29.37,-9999.0,SSE,24.2,-,N/A,,Unknown,160,2012-11-17 21:00:00
2:00 PM,51.1,46.0,83,29.39,-9999.0,SSE,20.7,-,N/A,,Unknown,150,2012-11-17 22:00:00
3:00 PM,47.8,43.9,86,29.38,-9999.0,SE,23.0,-,N/A,,Unknown,140,2012-11-17 23:00:00
4:00 PM,48,45,84,29.38,,SSE,17.3,,,,,150,2012-11-18 00:00:00
4:00 PM,48.0,44.8,89,29.38,-9999.0,SSE,17.3,-,N/A,,Unknown,150,2012-11-18 00:00:00
5:00 PM,46.6,44.1,91,29.39,-9999.0,SE,21.9,29.9,0.02,,Unknown,130,2012-11-18 01:00:00
6:00 PM,44.8,43.5,95,29.38,-9999.0,East,10.4,18.4,0.12,,Unknown,90,2012-11-18 02:00:00
7:00 PM,44,43,94,29.37,,ESE,18.4,,,,,120,2012-11-18 03:00:00
7:00 PM,43.7,42.8,97,29.37,-9999.0,ESE,18.4,25.3,0.25,,Unknown,120,2012-11-18 03:00:00
8:00 PM,43.2,42.3,97,29.39,-9999.0,WSW,13.8,-,0.12,,Unknown,240,2012-11-18 04:00:00
9:00 PM,42.3,41.5,97,29.42,-9999.0,West,11.5,-,0.05,,Unknown,280,2012-11-18 05:00:00
10:00 PM,41,41,98,29.45,,NE,8.1,,,,,50,2012-11-18 06:00:00
10:00 PM,41.0,40.6,99,29.45,-9999.0,NE,8.1,-,0.11,,Unknown,50,2012-11-18 06:00:00
11:00 PM,40.6,40.5,99,29.48,-9999.0,NE,10.4,-,0.02,,Unknown,40,2012-11-18 07:00:00